Location: Cheching
(60.0667°N, 164.2167°W)
Time: 21:33:53
(UTC+00:00)

XW-2D - Pass Details

Date: 25 January 2021
Orbit: 505 x 525 km, 97.5° (Epoch: 07 March)

Event Time Altitude Azimuth Distance (km) Brightness Sun altitude
Rises 17:44:56 0° 14° (NNE) 2,675 ? -11.9°
Reaches altitude 10° 17:47:04 10° 10° (N) 1,783 ? -11.6°
Maximum altitude 17:50:51 57° 292° (WNW) 629 ? -11.2°
Drops below altitude 10° 17:54:36 10° 214° (SW) 1,773 ? -10.7°
Sets 17:56:43 0° 210° (SSW) 2,658 ? -10.5°
